Weather Roundup
Issued by NWS Chicago, IL

Home | Current Version | Previous Version | Text Only | Print | Product List | Glossary Off
Versions: 1 2 3 4 5 6 7 8 9 10 11 12 13 14 15 16 17 18 19 20 21 22 23 24 25 26 27 28 29 30 31 32 33 34 35 36 37 38 39 40 41 42 43 44 45 46 47 48 49 50

429
NZUS59 KLOT 172203
HRRLOT

CHICAGO AREA WEATHER ROUNDUP
NATIONAL WEATHER SERVICE CHICAGO/ROMEOVILLE IL
400 PM CST SUN DEC 17 2017

NOTE: "FAIR" INDICATES FEW OR NO CLOUDS BELOW 12,000 FEET WITH NO
SIGNIFICANT WEATHER AND/OR OBSTRUCTIONS TO VISIBILITY.

* THESE STATIONS ARE NOT UNDER NWS QUALITY CONTROL. THEY ALSO MAY NOT
  REPORT WEATHER SUCH AS PRECIPITATION OR FOG.

ILZ005-006-012>014-019>023-172300-
NORTHEAST ILLINOIS

CITY           SKY/WX    TMP DP  RH WIND       PRES   REMARKS
OHARE          CLOUDY    41  32  70 CALM      29.97S
MIDWAY         CLOUDY    46  31  55 CALM      29.98S
AURORA         CLOUDY    41  32  70 CALM      29.98R
LANSING*       CLOUDY    44  35  71 S5        29.98F
JOLIET*        CLOUDY    48  34  58 CALM      29.98R
WAUKEGAN       CLOUDY    36  33  89 CALM      29.97S FOG
DUPAGE AIRPORT CLOUDY    40  33  76 CALM      29.97S HAZE
WHEELING       CLOUDY    40  35  83 CALM      29.99S
KANKAKEE*      CLOUDY    45  36  71 S7        30.01R
MORRIS*        CLOUDY    48  36  62 SW7       29.97R
LEWIS AIRPORT* CLOUDY    45  32  61 S5        29.98S
NORTHERLY ISL    N/A     39  31  73 SE1         N/A
$$

WIZ051-052-058>065-066-070>072-172300-
SOUTHEAST WISCONSIN

CITY           SKY/WX    TMP DP  RH WIND       PRES   REMARKS
MILWAUKEE      CLOUDY    36  33  89 CALM      29.98F FOG
KENOSHA*       CLOUDY    37  31  78 CALM      29.98S HAZE
RACINE*        CLOUDY    36  33  89 CALM      29.99F FOG
WEST BEND      CLOUDY    32  32 100 E3        29.97F FOG
$$

INZ001>003-010>013-019-020-172300-
NORTHWEST INDIANA

CITY           SKY/WX    TMP DP  RH WIND       PRES   REMARKS
GARY*          MOCLDY    46  30  53 S5        29.98F
MICHIGAN CITY* NOT AVBL
RENSSELAER*    NOT AVBL
VALPARAISO     CLOUDY    43  35  73 S6        30.00S
$$

LMZ740>746-172300-
SOUTHERN LAKE MICHIGAN

STATION/POSITION TIME  SKY/WX   TEMP WIND        PRES    VSBY
                                AIR  DIR/SP/G
                 (UTC)          (F)  (DEG/KT/KT) (MB)    (MI)
HARRISON CRIB    2140            41   CALM  /  1   N/A
BURNHAM HARBOR   2200            38   70/  1/  6   N/A
CALUMET HARBOR   2130            47  220/  4/  7 1014.6R
BURNS HARBOR     2140            45  190/  7/ 11 1015.9S
MICHIGAN CITY    2140            44  170/  9/ 10   N/A
$$

ABBREVIATIONS USED IN REMARKS
   TC - TEMPERATURE IN CELSIUS
  WCI - WIND CHILL INDEX
   HX - HEAT INDEX
  VSB - VISIBILITY
$$




USA.gov is the U.S. government's official web portal to all federal, state and local government web resources and services.